EW7405 Weather Reports


time (UTC)temp
C
wind
direction
speed
KPH
gust
KPH
rain 1hr
cm
rain 24hr
cm
rain mn
cm
humidity
%
barometer
mb
20260506014554 12 63 0.0 0.0 0.03 0.43 0.43 96 1006.5
20260506013053 12 63 0.0 0.0 0.03 0.43 0.43 96 1006.3
20260506011552 12 63 0.0 0.0 0.03 0.43 0.43 96 1006.4
20260506010052 12 47 0.0 0.0 0.03 0.43 0.43 96 1006.2
20260506004552 12 47 0.0 0.0 0.00 0.41 0.41 96 1006.0
20260506003052 12 53 0.0 0.0 0.00 0.41 0.41 95 1005.8
20260506001551 13 53 0.0 0.0 0.00 0.41 0.41 95 1005.9
20260506000049 13 101 0.0 0.0 0.00 0.41 0.41 95 1005.6
20260505234554 13 134 0.0 0.0 0.00 0.41 0.41 95 1005.6
20260505233048 13 134 0.0 0.0 0.00 0.41 0.41 95 1005.3
20260505231559 13 134 0.0 0.0 0.00 0.41 0.41 95 1005.0
20260505230056 13 134 0.0 0.0 0.00 0.41 0.41 95 1005.2
20260505224548 13 190 0.0 0.0 0.00 0.41 0.41 95 1005.5
20260505223046 13 133 0.0 0.0 0.00 0.41 0.41 95 1005.0
20260505221546 13 107 0.0 3.2 0.03 0.41 0.41 94 1004.8
20260505220044 13 280 0.0 16.1 0.03 0.41 0.41 94 1005.0
20260505214544 13 248 6.4 35.4 0.15 0.41 0.41 94 1005.2
20260505213053 13 248 0.0 17.7 0.38 0.41 0.41 94 1004.9
20260505211547 13 238 1.6 12.9 0.38 0.38 0.38 94 1004.6
20260505210043 13 256 0.0 20.9 0.38 0.38 0.38 92 1004.2
20260505204541 14 228 6.4 19.3 0.25 0.25 0.25 87 1004.6
20260505203040 18 200 3.2 17.7 0.03 0.03 0.03 74 1003.8
20260505201539 21 272 0.0 20.9 0.00 0.00 0.00 50 1003.2
20260505200040 22 267 3.2 24.1 0.00 0.00 0.00 40 1001.5
20260505194538 23 245 0.0 25.7 0.00 0.00 0.00 41 1001.2
20260505193038 23 193 0.0 19.3 0.00 0.00 0.00 38 1001.0
20260505191537 23 248 0.0 17.7 0.00 0.00 0.00 37 1001.3
20260505190036 24 256 8.0 25.7 0.00 0.00 0.00 35 1001.3
20260505184533 24 167 3.2 17.7 0.00 0.00 0.00 39 1001.5
20260505183036 25 169 4.8 20.9 0.00 0.00 0.00 41 1001.9
20260505181528 25 250 3.2 19.3 0.00 0.00 0.00 41 1001.8
20260505180042 24 231 9.7 25.7 0.00 0.00 0.00 42 1002.4
20260505174524 24 128 3.2 19.3 0.00 0.00 0.00 44 1002.3
20260505173021 23 236 8.0 30.6 0.00 0.00 0.00 44 1002.6
20260505171518 23 187 6.4 17.7 0.00 0.00 0.00 46 1003.0
20260505170015 22 197 3.2 19.3 0.00 0.00 0.00 50 1003.6
20260505164512 22 186 8.0 27.4 0.00 0.00 0.00 48 1003.8
20260505163010 22 211 8.0 25.7 0.00 0.00 0.00 51 1003.9
20260505161507 22 244 1.6 17.7 0.00 0.00 0.00 50 1004.1
20260505153057 21 193 3.2 16.1 0.00 0.10 0.00 53 1004.7
20260505151555 21 270 0.0 11.3 0.00 0.10 0.00 54 1005.1
20260505124519 13 246 0.0 0.0 0.00 0.20 0.00 74 1006.0
20260505123027 11 223 0.0 0.0 0.00 0.20 0.00 80 1006.5
20260505121511 8 34 0.0 0.0 0.00 0.20 0.00 94 1006.7
20260505120013 7 34 0.0 0.0 0.00 0.20 0.00 95 1006.7
20260505114501 7 34 0.0 0.0 0.00 0.20 0.00 95 1006.5
20260505113059 6 34 0.0 0.0 0.00 0.20 0.00 94 1006.6
20260505111557 6 34 0.0 0.0 0.00 0.20 0.00 95 1006.5
20260505101600 3 34 0.0 0.0 0.00 0.20 0.00 96 1006.7
20260505100058 3 34 0.0 0.0 0.00 0.20 0.00 96 1006.6
20260505094539 3 34 0.0 0.0 0.00 0.20 0.00 96 1006.6
20260505093038 3 34 0.0 0.0 0.00 0.20 0.00 96 1006.9
20260505091537 3 46 0.0 0.0 0.00 0.20 0.00 95 1007.0
20260505090036 3 46 0.0 0.0 0.00 0.20 0.00 95 1006.9
20260505084535 3 46 0.0 0.0 0.00 0.20 0.00 95 1007.0
20260505083035 3 46 0.0 0.0 0.00 0.20 0.00 95 1007.1
20260505081534 3 46 0.0 0.0 0.00 0.20 0.00 95 1007.1
20260505080032 3 46 0.0 0.0 0.00 0.20 0.00 95 1007.0
20260505074529 3 46 0.0 0.0 0.00 0.20 0.00 94 1007.1
20260505073036 3 46 0.0 0.0 0.00 0.20 0.00 94 1007.2
20260505071528 3 46 0.0 0.0 0.00 0.20 0.00 95 1007.2
20260505070027 3 46 0.0 0.0 0.00 0.20 0.00 94 1007.1
20260505064526 3 46 0.0 0.0 0.00 0.20 0.00 94 1007.3
20260505063025 3 46 0.0 0.0 0.00 0.20 0.00 94 1007.2
20260505061528 3 46 0.0 0.0 0.00 0.20 0.00 94 1007.3
20260505060025 3 46 0.0 0.0 0.00 0.20 0.00 94 1007.3
20260505054522 3 46 0.0 0.0 0.00 0.20 0.00 94 1007.4
20260505053033 3 46 0.0 0.0 0.00 0.20 0.00 94 1007.3
20260505051534 3 46 0.0 0.0 0.00 0.20 0.00 94 1007.2
20260505041517 4 46 0.0 0.0 0.00 0.20 0.00 93 1007.2
20260505040010 4 47 0.0 0.0 0.00 0.20 0.00 93 1007.1
20260505034509 5 51 0.0 0.0 0.00 0.20 0.20 92 1007.1
20260505033009 5 51 0.0 0.0 0.00 0.20 0.20 92 1007.0
20260505031509 5 51 0.0 0.0 0.00 0.20 0.20 92 1007.0
20260505030007 5 51 0.0 0.0 0.00 0.20 0.20 91 1007.0
20260505024508 6 51 0.0 0.0 0.00 0.20 0.20 91 1007.0
20260505023012 6 51 0.0 0.0 0.00 0.20 0.20 90 1007.1
20260505021506 6 51 0.0 0.0 0.00 0.20 0.20 90 1007.2
20260505020006 6 51 0.0 0.0 0.00 0.20 0.20 90 1007.2